Location: Baix
(44.7118°N, 4.7648°E)
Time: 17:17:21
(UTC+00:00)

Sich 1 Rocket - Pass Details

Date: 07 August 2020
Orbit: 617 x 651 km, 82.5° (Epoch: 23 September)

Event Time Altitude Azimuth Distance (km) Brightness Sun altitude
Exits shadow 00:48:43 48° 332° (NNW) 820 4.3 -27.3°
Drops below altitude 10° 00:52:08 10° 2° (N) 1,995 7.1 -27.2°
Sets 00:54:23 0° 6° (N) 2,904 8.2 -27.0°
